Content
SEND FEEDBACK

United States of America Flag

SALEM, NEW JERSEY


Home > North America > United States > New Jersey
Elevation: 10 feet     Latitude: 39 28N     Longitude: 075 25W

WEATHER
 
SELECT A DAY
Number of Records: 220,133;   Date Range: 1/1/95 - 3/22/16
 
SHARE

PRINT THIS DATA

[ ← Previous Day ]
WEATHER ALMANAC - JANUARY 30, 2013
[ Next Day → ]
[ °C ]   °F
Weather ElementAverageHighLow
Temperature51.5 °F70 °F (3:51 pm)37.4 °F (2:17 am)
Dewpoint48.8 °F57.9 °F (11:51 am)37.4 °F (2:17 am)
Humidity91.3 %100 % (1:07 am)64 % (4:51 pm)
Barometer29.76 in30.01 in (12:51 am)29.32 in (11:59 pm)
Wind Speed7.5 mph25.3 mph (11:58 am)
Wind Gust35.7 mph (11:58 am)
Weather ElementAverage
Visibility3.8 mi
Wind DirectionESE (127.4 °)

Weather ElementTotal
Precipitation1.47 in
Heating Degree Days11.3 (Base 65)
Growing Degree Days3.7 (Base 50)
Averaged from 61 records on January 30, 2013
WEATHER CONDITIONS BREAKOUT
WIND DIRECTION BREAKOUT
WEATHER BY HOUR - JANUARY 30, 2013
[ °C ]   °F
Local TimeTemperatureDewpointHumidityBarometerVisibilityWind DirectionWind SpeedGust SpeedPrecipitationEventsConditions
12:51 AM42.1 °F41.0 °F96 %30.01 in2.0 miESE (110°)3.5 mphClear
1:07 AM39.2 °F39.2 °F100 %30.00 in0.8 miCalmMist
1:30 AM39.2 °F39.2 °F100 %30.00 in0.2 miCalmFogFog
1:51 AM39.0 °F37.9 °F96 %29.99 in0.2 miCalmFogFog
2:17 AM37.4 °F37.4 °F100 %29.97 in0.2 miCalmFogFog
2:36 AM37.4 °F37.4 °F100 %29.97 in0.2 miNNE (30°)3.5 mphFogFog
2:44 AM37.4 °F37.4 °F100 %29.97 in0.2 miCalmFogFog
2:51 AM39.0 °F37.9 °F96 %29.96 in0.2 miENE (70°)3.5 mphFogFog
3:25 AM39.2 °F37.4 °F93 %29.94 in0.5 miCalmFogFog
3:39 AM41.0 °F39.2 °F93 %29.93 in1.0 miVariable3.5 mphClear
3:45 AM42.8 °F41.0 °F93 %29.92 in0.8 miENE (70°)3.5 mphMist
3:46 AM42.8 °F41.0 °F93 %29.92 in0.8 miENE (60°)3.5 mphMist
3:58 AM39.2 °F39.2 °F100 %29.91 in0.2 miENE (70°)3.5 mphFogFog
4:08 AM39.2 °F39.2 °F100 %29.91 in0.2 miESE (110°)3.5 mphFogFog
4:16 AM42.8 °F41.0 °F93 %29.91 in1.0 miESE (120°)3.5 mphOvercast
4:51 AM42.1 °F41.0 °F96 %29.91 in1.2 miCalmOvercast
5:07 AM44.6 °F42.8 °F93 %29.91 in2.0 miCalmMostly Cloudy
5:26 AM42.8 °F42.8 °F100 %29.89 in1.8 miSE (140°)4.6 mphPartly Cloudy
5:51 AM44.1 °F42.1 °F93 %29.89 in1.2 miCalmClear
6:12 AM42.8 °F42.8 °F100 %29.88 in0.5 miCalmFogFog
6:15 AM42.8 °F42.8 °F100 %29.88 in0.2 miSouth (170°)3.5 mphFogFog
6:33 AM39.2 °F39.2 °F100 %29.88 in0.2 miSSE (150°)3.5 mphFogFog
6:43 AM44.6 °F42.8 °F93 %29.87 in1.0 miSSE (150°)5.8 mphOvercast
6:49 AM44.6 °F42.8 °F93 %29.87 in2.0 miSSE (150°)5.8 mphOvercast
6:51 AM44.1 °F43.0 °F96 %29.87 in2.0 miSSE (150°)5.8 mphOvercast
7:22 AM44.6 °F44.6 °F100 %29.86 in1.2 miSSE (150°)5.8 mphOvercast
7:51 AM46.0 °F45.0 °F96 %29.86 in1.2 miCalmMostly Cloudy
8:47 AM48.2 °F48.2 °F100 %29.85 in2.0 miSouth (170°)6.9 mphMostly Cloudy
8:51 AM48.9 °F48.0 °F97 %29.85 in1.8 miSouth (170°)5.8 mphMostly Cloudy
9:05 AM50.0 °F48.2 °F94 %29.85 in1.8 miSSE (160°)5.8 mphMostly Cloudy
9:20 AM50.0 °F48.2 °F94 %29.83 in2.5 miSSE (160°)10.4 mphOvercast
9:28 AM50.0 °F48.2 °F94 %29.83 in3.0 miSouth (170°)12.7 mphOvercast
9:51 AM55.0 °F53.1 °F93 %29.82 in6.0 miSouth (170°)9.2 mph0.01 inOvercast
10:33 AM62.6 °F57.2 °F82 %29.79 in10.0 miSouth (190°)15.0 mph27.6 mph0.01 inOvercast
10:51 AM63.0 °F57.0 °F81 %29.79 in10.0 miSouth (190°)15.0 mph25.3 mph0.01 inOvercast
11:51 AM66.9 °F57.9 °F73 %29.74 in10.0 miSouth (190°)24.2 mph33.4 mph0.03 inMostly Cloudy
11:58 AM66.2 °F57.2 °F73 %29.73 in10.0 miSSW (200°)25.3 mph35.7 mphScattered Clouds
12:51 PM66.9 °F57.9 °F73 %29.70 in10.0 miSSW (200°)18.4 mph34.5 mphPartly Cloudy
1:46 PM66.2 °F57.2 °F73 %29.66 in10.0 miSouth (190°)17.3 mph26.5 mph0.02 inOvercast
1:51 PM66.2 °F57.2 °F73 %29.66 in10.0 miSouth (180°)12.7 mph26.5 mphOvercast
2:33 PM68.0 °F57.2 °F68 %29.65 in10.0 miSSW (200°)21.9 mph32.2 mph0.01 inOvercast
2:51 PM68.0 °F57.9 °F70 %29.63 in10.0 miSSW (200°)23.0 mph31.1 mph0.02 inOvercast
3:51 PM70.0 °F57.9 °F65 %29.62 in10.0 miSSW (200°)24.2 mph28.8 mphMostly Cloudy
4:51 PM69.8 °F57.2 °F64 %29.62 in10.0 miWest (270°)25.3 mph32.2 mphOvercast
4:59 PM60.8 °F57.2 °F88 %29.63 in2.5 miWest (280°)19.6 mph34.5 mph0.06 inRainHeavy Rain
5:07 PM60.8 °F57.2 °F88 %29.64 in3.0 miWest (260°)12.7 mph0.12 inRainRain
5:27 PM60.8 °F57.2 °F88 %29.64 in2.5 miWest (260°)5.8 mph0.20 inRainHeavy Rain
5:47 PM59.0 °F57.2 °F94 %29.63 in6.0 miWNW (300°)3.5 mph0.26 inRainLight Rain
5:51 PM59.0 °F57.0 °F93 %29.64 in3.0 miWest (280°)5.8 mph0.27 inRainRain
6:06 PM59.0 °F57.2 °F94 %29.62 in6.0 miCalm0.04 inRainLight Rain
6:51 PM57.0 °F55.9 °F96 %29.60 in10.0 miCalm0.08 inRainLight Rain
7:35 PM57.2 °F55.4 °F94 %29.55 in7.0 miEast (100°)5.8 mph0.01 inOvercast
7:51 PM57.0 °F55.9 °F96 %29.55 in7.0 miCalm0.01 inOvercast
8:06 PM57.2 °F55.4 °F94 %29.53 in3.0 miEast (90°)5.8 mphOvercast
8:51 PM57.0 °F55.0 °F93 %29.48 in10.0 miSSE (150°)4.6 mphOvercast
9:51 PM57.9 °F55.9 °F93 %29.47 in4.0 miWSW (250°)9.2 mph0.03 inRainRain
10:34 PM59.0 °F55.4 °F88 %29.44 in4.0 miSW (220°)9.2 mph0.06 inRainLight Rain
10:51 PM57.9 °F55.9 °F93 %29.41 in4.0 miSW (230°)4.6 mph0.09 inRainRain
11:44 PM55.4 °F55.4 °F100 %29.34 in1.8 miSE (130°)6.9 mph0.13 inRainLight Rain
11:51 PM55.4 °F55.4 °F100 %29.34 in2.0 miSE (140°)6.9 mphRainLight Rain
11:59 PM57.2 °F57.2 °F100 %29.32 in8.0 miSouth (170°)15.0 mph19.6 mph0.00 inRainLight Rain
Hourly data recorded from KILG, located miles away from Salem, New Jersey




STORIES FROM OUR PARTNERS